,,Stat6,,Stat2,,Stat8,,Stat9,,Stat10,,Wind1,,Wind1,
time,status,PA1M_AVG,status,PR1M_SUM,status,RH1M_AVG,status,SR1M_AVG,status,TA1M_AVG,status,W1dAve1m,status,W1sAve1m,
2007-05-22, 00:00:00,VALID,918.147,VALID,0,VALID,100,VALID,0.0339617,VALID,20.6161,VALID,76,VALID,0.894804,
2007-05-22, 00:01:00,VALID,918.151,VALID,0,VALID,100,VALID,0.0509425,VALID,20.6196,VALID,68,VALID,0.789253,
2007-05-22, 00:02:00,VALID,918.155,VALID,0,VALID,100,VALID,0.0169808,VALID,20.6198,VALID,82,VALID,0.527644,
2007-05-22, 00:03:00,VALID,918.163,VALID,0,VALID,100,VALID,0.0509425,VALID,20.6331,VALID,69,VALID,0.431463,
2007-05-22, 00:04:00,VALID,918.158,VALID,0,VALID,100,VALID,0,VALID,20.6393,VALID,69,VALID,0.586301,
2007-05-22, 00:05:00,VALID,918.153,VALID,0,VALID,100,VALID,0.0339617,VALID,20.6163,VALID,59,VALID,0.811012,
2007-05-22, 00:06:00,VALID,918.147,VALID,0,VALID,100,VALID,0.0339617,VALID,20.6226,VALID,51,VALID,0.396984,
2007-05-22, 00:07:00,VALID,918.119,VALID,0,VALID,100,VALID,0.0509425,VALID,20.6391,VALID,50,VALID,0.417151,
2007-05-22, 00:08:00,VALID,918.11,VALID,0,VALID,100,VALID,0,VALID,20.6623,VALID,50,VALID,0.52168,
2007-05-22, 00:09:00,VALID,918.094,VALID,0,VALID,100,VALID,0,VALID,20.6748,VALID,48,VALID,0.705611,
2007-05-22, 00:10:00,VALID,918.08,VALID,0,VALID,100,VALID,0,VALID,20.6712,VALID,47,VALID,0.356957,
2007-05-22, 00:11:00,VALID,918.064,VALID,0,VALID,100,VALID,0.0509425,VALID,20.6815,VALID,53,VALID,0.362216,
2007-05-22, 00:12:00,VALID,918.061,VALID,0,VALID,100,VALID,0.0679233,VALID,20.6712,VALID,68,VALID,0.504179,
2007-05-22, 00:13:00,VALID,918.069,VALID,0,VALID,100,VALID,0.0679233,VALID,20.6553,VALID,81,VALID,0.553163,
2007-05-22, 00:14:00,VALID,918.063,VALID,0,VALID,100,VALID,-0.0509425,VALID,20.6306,VALID,101,VALID,0.283296,
2007-05-22, 00:15:00,VALID,918.055,VALID,0,VALID,100,VALID,-0.0509425,VALID,20.6147,VALID,102,VALID,0.560938,
2007-05-22, 00:16:00,VALID,918.05,VALID,0,VALID,100,VALID,-0.0679233,VALID,20.5917,VALID,106,VALID,0.441761,
2007-05-22, 00:17:00,VALID,918.033,VALID,0,VALID,100,VALID,-0.0679233,VALID,20.5852,VALID,111,VALID,0.436047,
2007-05-22, 00:18:00,VALID,918.022,VALID,0,VALID,100,VALID,-0.0169808,VALID,20.5755,VALID,120,VALID,0.388867,
2007-05-22, 00:19:00,VALID,918.019,VALID,0,VALID,100,VALID,-0.0509425,VALID,20.5787,VALID,178,VALID,0.676172,
2007-05-22, 00:20:00,VALID,918.003,VALID,0,VALID,100,VALID,-0.0509425,VALID,20.5662,VALID,167,VALID,0.548118,
2007-05-22, 00:21:00,VALID,917.978,VALID,0,VALID,100,VALID,-0.0679233,VALID,20.5527,VALID,171,VALID,0.682478,
2007-05-22, 00:22:00,VALID,917.955,VALID,0,VALID,100,VALID,-0.0679233,VALID,20.5495,VALID,169,VALID,0.767987,
2007-05-22, 00:23:00,VALID,917.94,VALID,0,VALID,100,VALID,-0.0339617,VALID,20.5398,VALID,159,VALID,0.775915,
2007-05-22, 00:24:00,VALID,917.937,VALID,0,VALID,100,VALID,-0.0509425,VALID,20.5495,VALID,147,VALID,0.449396,
2007-05-22, 00:25:00,VALID,917.931,VALID,0,VALID,100,VALID,-0.0849042,VALID,20.5495,VALID,149,VALID,0.761137,
2007-05-22, 00:26:00,VALID,917.929,VALID,0,VALID,100,VALID,-0.0169808,VALID,20.5327,VALID,138,VALID,0.602108,
2007-05-22, 00:27:00,VALID,917.924,VALID,0,VALID,100,VALID,-0.0509425,VALID,20.5362,VALID,122,VALID,0.67508,
2007-05-22, 00:28:00,VALID,917.943,VALID,0,VALID,100,VALID,-0.0849042,VALID,20.5303,VALID,119,VALID,0.81543,
2007-05-22, 00:29:00,VALID,917.95,VALID,0,VALID,100,VALID,-0.0339617,VALID,20.526,VALID,83,VALID,0.47093,
2007-05-22, 00:30:00,VALID,917.946,VALID,0,VALID,100,VALID,0.0849042,VALID,20.5479,VALID,68,VALID,0.589753,
2007-05-22, 00:31:00,VALID,917.94,VALID,0,VALID,100,VALID,0.0679233,VALID,20.5709,VALID,49,VALID,0.64117,
2007-05-22, 00:32:00,VALID,917.952,VALID,0,VALID,100,VALID,0.0509425,VALID,20.5612,VALID,60,VALID,0.44401,
2007-05-22, 00:33:00,VALID,917.945,VALID,0,VALID,100,VALID,0.0339617,VALID,20.5514,VALID,68,VALID,0.643429,
2007-05-22, 00:34:00,VALID,917.933,VALID,0,VALID,100,VALID,0.0169808,VALID,20.5065,VALID,87,VALID,0.741257,
2007-05-22, 00:35:00,VALID,917.914,VALID,0,VALID,100,VALID,0.0509425,VALID,20.4898,VALID,89,VALID,0.46439,
2007-05-22, 00:36:00,VALID,917.892,VALID,0,VALID,100,VALID,0.0339617,VALID,20.4638,VALID,96,VALID,0.302539,
2007-05-22, 00:37:00,VALID,917.876,VALID,0,VALID,100,VALID,0.0169808,VALID,20.4703,VALID,95,VALID,0.520952,
2007-05-22, 00:38:00,VALID,917.844,VALID,0,VALID,100,VALID,0.0679233,VALID,20.4638,VALID,92,VALID,0.708757,
2007-05-22, 00:39:00,VALID,917.818,VALID,0,VALID,100,VALID,0.0339617,VALID,20.48,VALID,71,VALID,0.215021,
2007-05-22, 00:40:00,VALID,917.793,VALID,0,VALID,100,VALID,0.0679233,VALID,20.4963,VALID,73,VALID,0.26669,
2007-05-22, 00:41:00,VALID,917.776,VALID,0,VALID,100,VALID,0.0849042,VALID,20.4798,VALID,107,VALID,0.578993,
2007-05-22, 00:42:00,VALID,917.741,VALID,0,VALID,100,VALID,0.0339617,VALID,20.4601,VALID,122,VALID,0.896341,
2007-05-22, 00:43:00,VALID,917.751,VALID,0,VALID,100,VALID,0.0509425,VALID,20.4571,VALID,126,VALID,0.915972,
2007-05-22, 00:44:00,VALID,917.737,VALID,0,VALID,100,VALID,-0.0339617,VALID,20.4454,VALID,139,VALID,1.03409,
2007-05-22, 00:45:00,VALID,917.743,VALID,0,VALID,100,VALID,-0.0339617,VALID,20.4232,VALID,137,VALID,0.667969,
2007-05-22, 00:46:00,VALID,917.729,VALID,0,VALID,100,VALID,-0.101885,VALID,20.4105,VALID,149,VALID,0.984012,
2007-05-22, 00:47:00,VALID,917.732,VALID,0,VALID,100,VALID,-0.0509425,VALID,20.391,VALID,122,VALID,0.308685,
2007-05-22, 00:48:00,VALID,917.721,VALID,0,VALID,100,VALID,-0.0509425,VALID,20.3918,VALID,118,VALID,0.669779,
2007-05-22, 00:49:00,VALID,917.707,VALID,0,VALID,100,VALID,-0.0509425,VALID,20.3518,VALID,122,VALID,0.219658,
2007-05-22, 00:50:00,VALID,917.694,VALID,0,VALID,100,VALID,-0.0849042,VALID,20.3491,VALID,122,VALID,0.128815,
2007-05-22, 00:51:01,VALID,917.667,VALID,0,VALID,100,VALID,-0.0509425,VALID,20.3293,VALID,122,VALID,0.107922,
2007-05-22, 00:52:00,VALID,917.639,VALID,0,VALID,100,VALID,-0.101885,VALID,20.3291,VALID,122,VALID,0,
2007-05-22, 00:53:00,VALID,917.633,VALID,0,VALID,100,VALID,-0.0509425,VALID,20.3426,VALID,122,VALID,0.10816,
2007-05-22, 00:54:00,VALID,917.606,VALID,0,VALID,100,VALID,-0.0849042,VALID,20.3096,VALID,122,VALID,0,
2007-05-22, 00:55:01,VALID,917.604,VALID,0,VALID,100,VALID,-0.101885,VALID,20.3028,VALID,122,VALID,0.133765,
2007-05-22, 00:56:00,VALID,917.585,VALID,0,VALID,100,VALID,-0.101885,VALID,20.3001,VALID,135,VALID,0.260045,
2007-05-22, 00:57:00,VALID,917.586,VALID,0,VALID,100,VALID,-0.101885,VALID,20.2904,VALID,201,VALID,0.768169,
2007-05-22, 00:58:00,VALID,917.578,VALID,0,VALID,100,VALID,-0.0679233,VALID,20.2934,VALID,191,VALID,0.489583,
2007-05-22, 00:59:00,VALID,917.57,VALID,0,VALID,100,VALID,-0.101885,VALID,20.2574,VALID,192,VALID,0.514096,
2007-05-22, 01:00:00,VALID,917.563,VALID,0,VALID,100,VALID,-0.0849042,VALID,20.2447,VALID,189,VALID,0.897294,
2007-05-22, 01:01:00,VALID,917.543,VALID,0,VALID,100,VALID,-0.0339617,VALID,20.2185,VALID,193,VALID,0.725347,
2007-05-22, 01:02:01,VALID,917.509,VALID,0,VALID,100,VALID,-0.0509425,VALID,20.2025,VALID,191,VALID,0.658918,
2007-05-22, 01:03:00,VALID,917.491,VALID,0,VALID,100,VALID,-0.0679233,VALID,20.1828,VALID,191,VALID,0.462652,
2007-05-22, 01:04:00,VALID,917.479,VALID,0,VALID,100,VALID,-0.0509425,VALID,20.1863,VALID,173,VALID,0.431463,
2007-05-22, 01:05:01,VALID,917.471,VALID,0,VALID,100,VALID,-0.0509425,VALID,20.1925,VALID,169,VALID,0.91582,
2007-05-22, 01:06:00,VALID,917.448,VALID,0,VALID,100,VALID,-0.0679233,VALID,20.2058,VALID,176,VALID,0.699855,
2007-05-22, 01:07:00,VALID,917.463,VALID,0,VALID,100,VALID,-0.0679233,VALID,20.196,VALID,188,VALID,0.519271,
2007-05-22, 01:08:00,VALID,917.449,VALID,0,VALID,100,VALID,-0.0509425,VALID,20.1925,VALID,184,VALID,0.337798,
2007-05-22, 01:09:00,VALID,917.456,VALID,0,VALID,100,VALID,0.0169808,VALID,20.1785,VALID,175,VALID,0.676448,
2007-05-22, 01:10:00,VALID,917.445,VALID,0,VALID,100,VALID,0.0509425,VALID,20.165,VALID,187,VALID,1.0501,
2007-05-22, 01:11:01,VALID,917.442,VALID,0,VALID,100,VALID,0.0339617,VALID,20.1523,VALID,178,VALID,0.585764,
2007-05-22, 01:12:00,VALID,917.438,VALID,0,VALID,100,VALID,0.0679233,VALID,20.1491,VALID,167,VALID,0.564862,
2007-05-22, 01:13:01,VALID,917.413,VALID,0,VALID,100,VALID,0.101885,VALID,20.1226,VALID,154,VALID,1.36406,
2007-05-22, 01:14:00,VALID,917.396,VALID,0,VALID,100,VALID,0,VALID,20.0882,VALID,163,VALID,1.15217,
2007-05-22, 01:15:01,VALID,917.365,VALID,0,VALID,100,VALID,-0.0169808,VALID,20.0822,VALID,153,VALID,1.37274,
2007-05-22, 01:16:00,VALID,917.337,VALID,0,VALID,100,VALID,-0.0169808,VALID,20.0722,VALID,155,VALID,1.73344,
2007-05-22, 01:17:01,VALID,917.296,VALID,0,VALID,100,VALID,-0.0169808,VALID,20.062,VALID,150,VALID,1.66649,
2007-05-22, 01:18:01,VALID,917.281,VALID,0,VALID,100,VALID,-0.0339617,VALID,20.069,VALID,157,VALID,1.32413,
2007-05-22, 01:19:00,VALID,917.249,VALID,0,VALID,100,VALID,-0.0679233,VALID,20.076,VALID,159,VALID,1.27816,
2007-05-22, 01:20:00,VALID,917.236,VALID,0,VALID,100,VALID,-0.0679233,VALID,20.0627,VALID,163,VALID,1.09223,
2007-05-22, 01:21:00,VALID,917.223,VALID,0,VALID,100,VALID,-0.0509425,VALID,20.0435,VALID,153,VALID,2.04323,
2007-05-22, 01:22:01,VALID,917.223,VALID,0,VALID,100,VALID,-0.0339617,VALID,20.0238,VALID,156,VALID,1.76228,
2007-05-22, 01:23:00,VALID,917.213,VALID,0,VALID,100,VALID,-0.0339617,VALID,19.9998,VALID,149,VALID,2.08036,
2007-05-22, 01:24:00,VALID,917.215,VALID,0,VALID,100,VALID,0,VALID,19.9946,VALID,154,VALID,1.80684,
2007-05-22, 01:25:00,VALID,917.204,VALID,0,VALID,100,VALID,-0.0509425,VALID,19.9719,VALID,160,VALID,1.80022,
2007-05-22, 01:26:00,VALID,917.188,VALID,0,VALID,100,VALID,-0.0339617,VALID,19.9716,VALID,164,VALID,1.40092,
2007-05-22, 01:27:00,VALID,917.171,VALID,0,VALID,100,VALID,-0.0339617,VALID,19.9684,VALID,167,VALID,1.32463,
2007-05-22, 01:28:00,VALID,917.148,VALID,0,VALID,100,VALID,-0.0509425,VALID,19.9716,VALID,138,VALID,1.62393,
2007-05-22, 01:29:00,VALID,917.136,VALID,0,VALID,100,VALID,0.0339617,VALID,19.9773,VALID,162,VALID,1.14737,
2007-05-22, 01:30:00,VALID,917.132,VALID,0,VALID,100,VALID,0.0849042,VALID,19.9866,VALID,149,VALID,1.94931,
2007-05-22, 01:31:00,VALID,917.125,VALID,0,VALID,100,VALID,0.0509425,VALID,19.9731,VALID,160,VALID,0.933507,
2007-05-22, 01:32:00,VALID,917.128,VALID,0,VALID,100,VALID,0.0679233,VALID,19.9671,VALID,150,VALID,2.00391,
2007-05-22, 01:33:00,VALID,917.128,VALID,0,VALID,100,VALID,0.0509425,VALID,19.9701,VALID,141,VALID,1.79742,
2007-05-22, 01:34:00,VALID,917.128,VALID,0,VALID,100,VALID,0.0849042,VALID,19.9668,VALID,164,VALID,1.34952,
2007-05-22, 01:35:01,VALID,917.136,VALID,0,VALID,100,VALID,0.0679233,VALID,19.9471,VALID,148,VALID,2.09738,
2007-05-22, 01:36:01,VALID,917.133,VALID,0,VALID,100,VALID,0.101885,VALID,19.9536,VALID,148,VALID,1.80107,
2007-05-22, 01:37:00,VALID,917.114,VALID,0,VALID,100,VALID,0.0509425,VALID,19.9404,VALID,156,VALID,2.05952,
2007-05-22, 01:38:00,VALID,917.107,VALID,0,VALID,100,VALID,0.0849042,VALID,19.9401,VALID,160,VALID,1.73262,
2007-05-22, 01:39:01,VALID,917.087,VALID,0,VALID,100,VALID,0.0849042,VALID,19.9536,VALID,157,VALID,1.26935,
2007-05-22, 01:40:00,VALID,917.063,VALID,0,VALID,100,VALID,0.101885,VALID,19.9606,VALID,167,VALID,1.45149,
2007-05-22, 01:41:01,VALID,917.051,VALID,0,VALID,100,VALID,0.0509425,VALID,19.9606,VALID,161,VALID,1.84642,
2007-05-22, 01:42:00,VALID,917.036,VALID,0,VALID,100,VALID,0.0509425,VALID,19.9476,VALID,166,VALID,1.84301,
2007-05-22, 01:43:01,VALID,917.008,VALID,0,VALID,100,VALID,0.0849042,VALID,19.9476,VALID,156,VALID,1.93452,
2007-05-22, 01:44:01,VALID,916.995,VALID,0,VALID,100,VALID,0.0509425,VALID,19.9379,VALID,163,VALID,1.75267,
2007-05-22, 01:45:01,VALID,916.976,VALID,0,VALID,100,VALID,0.0679233,VALID,19.9342,VALID,162,VALID,1.75621,
2007-05-22, 01:46:01,VALID,916.955,VALID,0,VALID,100,VALID,0.0849042,VALID,19.9476,VALID,149,VALID,1.90699,
2007-05-22, 01:47:01,VALID,916.951,VALID,0,VALID,100,VALID,0.0679233,VALID,19.9376,VALID,152,VALID,1.7479,
2007-05-22, 01:48:01,VALID,916.937,VALID,0,VALID,100,VALID,0.0679233,VALID,19.9342,VALID,158,VALID,1.48047,
2007-05-22, 01:49:01,VALID,916.93,VALID,0,VALID,100,VALID,0.0339617,VALID,19.9411,VALID,143,VALID,1.53379,
2007-05-22, 01:50:00,VALID,916.934,VALID,0,VALID,100,VALID,0,VALID,19.9242,VALID,148,VALID,1.88142,
2007-05-22, 01:51:00,VALID,916.921,VALID,0,VALID,100,VALID,0.101885,VALID,19.9279,VALID,147,VALID,1.59204,
2007-05-22, 01:52:00,VALID,916.909,VALID,0,VALID,100,VALID,0.0509425,VALID,19.9055,VALID,156,VALID,2.28757,
2007-05-22, 01:53:00,VALID,916.91,VALID,0,VALID,100,VALID,0.0679233,VALID,19.889,VALID,152,VALID,1.94609,
2007-05-22, 01:54:00,VALID,916.898,VALID,0,VALID,100,VALID,0.0509425,VALID,19.873,VALID,164,VALID,1.64789,
2007-05-22, 01:55:00,VALID,916.893,VALID,0,VALID,100,VALID,0.118866,VALID,19.8593,VALID,161,VALID,1.66109,
2007-05-22, 01:56:00,VALID,916.883,VALID,0,VALID,100,VALID,0.0849042,VALID,19.85,VALID,157,VALID,1.51246,
2007-05-22, 01:57:00,VALID,916.859,VALID,0,VALID,100,VALID,0.0679233,VALID,19.8468,VALID,156,VALID,1.48047,
2007-05-22, 01:58:00,VALID,916.852,VALID,0,VALID,100,VALID,0.0849042,VALID,19.8471,VALID,169,VALID,2.00949,
2007-05-22, 01:59:00,VALID,916.815,VALID,0,VALID,100,VALID,0,VALID,19.8343,VALID,145,VALID,2.00763,
2007-05-22, 02:00:00,VALID,916.789,VALID,0,VALID,100,VALID,0,VALID,19.8321,VALID,154,VALID,1.01582,
2007-05-22, 02:01:00,VALID,916.751,VALID,0,VALID,100,VALID,-0.0339617,VALID,19.8218,VALID,153,VALID,1.55098,
2007-05-22, 02:02:00,VALID,916.715,VALID,0,VALID,100,VALID,-0.0169808,VALID,19.8189,VALID,162,VALID,1.28427,
2007-05-22, 02:03:00,VALID,916.684,VALID,0,VALID,100,VALID,0,VALID,19.8029,VALID,152,VALID,1.59193,
2007-05-22, 02:04:00,VALID,916.658,VALID,0,VALID,100,VALID,-0.0509425,VALID,19.7867,VALID,156,VALID,1.63692,
2007-05-22, 02:05:00,VALID,916.648,VALID,0,VALID,100,VALID,0,VALID,19.7702,VALID,145,VALID,1.69774,
2007-05-22, 02:06:00,VALID,916.647,VALID,0,VALID,100,VALID,0,VALID,19.7572,VALID,164,VALID,1.96856,
2007-05-22, 02:07:00,VALID,916.649,VALID,0,VALID,100,VALID,-0.0339617,VALID,19.7512,VALID,155,VALID,1.61293,
2007-05-22, 02:08:00,VALID,916.66,VALID,0,VALID,100,VALID,-0.0169808,VALID,19.7313,VALID,161,VALID,1.73328,
2007-05-22, 02:09:00,VALID,916.657,VALID,0,VALID,100,VALID,-0.0339617,VALID,19.7245,VALID,156,VALID,1.74082,
2007-05-22, 02:10:00,VALID,916.665,VALID,0,VALID,100,VALID,-0.0169808,VALID,19.738,VALID,161,VALID,1.48853,
2007-05-22, 02:11:00,VALID,916.662,VALID,0,VALID,100,VALID,-0.0339617,VALID,19.7445,VALID,158,VALID,2.31944,
2007-05-22, 02:12:00,VALID,916.656,VALID,0,VALID,100,VALID,-0.0679233,VALID,19.7542,VALID,166,VALID,1.88039,
2007-05-22, 02:13:00,VALID,916.634,VALID,0,VALID,100,VALID,-0.0339617,VALID,19.7402,VALID,164,VALID,1.49618,
2007-05-22, 02:14:00,VALID,916.61,VALID,0,VALID,100,VALID,-0.0169808,VALID,19.741,VALID,159,VALID,1.70703,
2007-05-22, 02:15:00,VALID,916.595,VALID,0,VALID,100,VALID,-0.0509425,VALID,19.7382,VALID,171,VALID,1.62918,
2007-05-22, 02:16:00,VALID,916.572,VALID,0,VALID,100,VALID,-0.0339617,VALID,19.7283,VALID,169,VALID,1.61049,
2007-05-22, 02:17:00,VALID,916.553,VALID,0,VALID,100,VALID,-0.0849042,VALID,19.715,VALID,166,VALID,1.55238,
2007-05-22, 02:18:00,VALID,916.56,VALID,0,VALID,100,VALID,-0.0169808,VALID,19.7085,VALID,164,VALID,1.30957,
2007-05-22, 02:19:00,VALID,916.562,VALID,0,VALID,100,VALID,-0.0679233,VALID,19.7023,VALID,148,VALID,1.71913,
2007-05-22, 02:20:00,VALID,916.571,VALID,0,VALID,100,VALID,-0.0679233,VALID,19.6926,VALID,161,VALID,1.75539,
2007-05-22, 02:21:00,VALID,916.589,VALID,0,VALID,100,VALID,-0.0169808,VALID,19.6821,VALID,164,VALID,1.93132,
2007-05-22, 02:22:00,VALID,916.605,VALID,0,VALID,100,VALID,-0.0679233,VALID,19.6896,VALID,157,VALID,1.6266,
2007-05-22, 02:23:00,VALID,916.614,VALID,0,VALID,100,VALID,-0.0169808,VALID,19.6923,VALID,160,VALID,1.7371,
2007-05-22, 02:24:00,VALID,916.613,VALID,0,VALID,100,VALID,-0.0339617,VALID,19.6861,VALID,157,VALID,1.32515,
2007-05-22, 02:25:00,VALID,916.603,VALID,0,VALID,100,VALID,-0.0509425,VALID,19.6861,VALID,147,VALID,1.08705,
2007-05-22, 02:26:00,VALID,916.61,VALID,0,VALID,100,VALID,-0.0509425,VALID,19.6763,VALID,142,VALID,1.22965,
2007-05-22, 02:27:00,VALID,916.612,VALID,0,VALID,100,VALID,-0.0169808,VALID,19.6726,VALID,120,VALID,1.39156,
2007-05-22, 02:28:00,VALID,916.594,VALID,0,VALID,100,VALID,-0.0509425,VALID,19.6666,VALID,149,VALID,1.54392,
2007-05-22, 02:29:00,VALID,916.599,VALID,0,VALID,100,VALID,0.0509425,VALID,19.6594,VALID,139,VALID,1.58047,
2007-05-22, 02:30:00,VALID,916.603,VALID,0,VALID,100,VALID,0.0509425,VALID,19.6424,VALID,155,VALID,1.66071,
2007-05-22, 02:31:00,VALID,916.606,VALID,0,VALID,100,VALID,0.0849042,VALID,19.6289,VALID,150,VALID,1.63635,
2007-05-22, 02:32:00,VALID,916.591,VALID,0,VALID,100,VALID,0.0679233,VALID,19.6327,VALID,134,VALID,0.976744,
2007-05-22, 02:33:00,VALID,916.594,VALID,0,VALID,100,VALID,0.0849042,VALID,19.6252,VALID,127,VALID,1.30529,
2007-05-22, 02:34:00,VALID,916.59,VALID,0,VALID,100,VALID,0.0679233,VALID,19.6287,VALID,147,VALID,1.56024,
2007-05-22, 02:35:00,VALID,916.591,VALID,0,VALID,100,VALID,0.101885,VALID,19.6254,VALID,162,VALID,1.81155,
2007-05-22, 02:36:00,VALID,916.602,VALID,0,VALID,100,VALID,0.0849042,VALID,19.6155,VALID,146,VALID,0.934261,
2007-05-22, 02:37:00,VALID,916.613,VALID,0,VALID,100,VALID,0.0849042,VALID,19.606,VALID,151,VALID,1.33479,
2007-05-22, 02:38:00,VALID,916.635,VALID,0,VALID,100,VALID,0.0849042,VALID,19.613,VALID,139,VALID,0.865327,
2007-05-22, 02:39:00,VALID,916.64,VALID,0,VALID,100,VALID,0.0849042,VALID,19.603,VALID,160,VALID,0.906795,
2007-05-22, 02:40:00,VALID,916.657,VALID,0,VALID,100,VALID,0.0849042,VALID,19.5895,VALID,124,VALID,0.792039,
2007-05-22, 02:41:00,VALID,916.68,VALID,0,VALID,100,VALID,0.0679233,VALID,19.5935,VALID,138,VALID,0.678597,
2007-05-22, 02:42:00,VALID,916.7,VALID,0,VALID,100,VALID,0.101885,VALID,19.5873,VALID,137,VALID,0.702083,
2007-05-22, 02:43:00,VALID,916.72,VALID,0,VALID,100,VALID,0.0849042,VALID,19.567,VALID,116,VALID,0.297602,
2007-05-22, 02:44:00,VALID,916.742,VALID,0,VALID,100,VALID,0.0339617,VALID,19.5818,VALID,147,VALID,0.439276,
2007-05-22, 02:45:00,VALID,916.763,VALID,0,VALID,100,VALID,-0.0509425,VALID,19.5556,VALID,158,VALID,0.329013,
2007-05-22, 02:46:00,VALID,916.783,VALID,0,VALID,100,VALID,-0.0169808,VALID,19.5688,VALID,128,VALID,0.119234,
2007-05-22, 02:47:00,VALID,916.798,VALID,0,VALID,100,VALID,-0.0339617,VALID,19.572,VALID,136,VALID,0.339558,
2007-05-22, 02:48:00,VALID,916.82,VALID,0,VALID,100,VALID,-0.0509425,VALID,19.566,VALID,132,VALID,0.599466,
2007-05-22, 02:49:00,VALID,916.819,VALID,0,VALID,100,VALID,-0.0169808,VALID,19.5663,VALID,128,VALID,0.288681,
2007-05-22, 02:50:00,VALID,916.811,VALID,0,VALID,100,VALID,-0.0339617,VALID,19.5688,VALID,101,VALID,0.594336,
2007-05-22, 02:51:00,VALID,916.812,VALID,0,VALID,100,VALID,-0.0169808,VALID,19.5653,VALID,60,VALID,0.699405,
2007-05-22, 02:52:00,VALID,916.804,VALID,0,VALID,100,VALID,-0.0169808,VALID,19.5628,VALID,93,VALID,0.388445,
2007-05-22, 02:53:00,VALID,916.796,VALID,0,VALID,100,VALID,-0.0509425,VALID,19.5496,VALID,104,VALID,0.350109,
2007-05-22, 02:54:00,VALID,916.775,VALID,0,VALID,100,VALID,-0.0169808,VALID,19.5493,VALID,63,VALID,0.72311,
2007-05-22, 02:55:00,VALID,916.785,VALID,0,VALID,100,VALID,-0.0169808,VALID,19.5266,VALID,102,VALID,0.605469,
2007-05-22, 02:56:00,VALID,916.779,VALID,0,VALID,100,VALID,-0.0339617,VALID,19.5106,VALID,67,VALID,0.636083,
2007-05-22, 02:57:00,VALID,916.78,VALID,0,VALID,100,VALID,-0.0509425,VALID,19.5071,VALID,78,VALID,0.969638,
2007-05-22, 02:58:00,VALID,916.793,VALID,0,VALID,100,VALID,-0.0169808,VALID,19.4904,VALID,70,VALID,0.409856,
2007-05-22, 02:59:00,VALID,916.801,VALID,0,VALID,100,VALID,-0.0169808,VALID,19.4912,VALID,107,VALID,0.569336,
2007-05-22, 03:00:00,VALID,916.818,VALID,0,VALID,100,VALID,-0.0339617,VALID,19.4745,VALID,111,VALID,0.643466,
2007-05-22, 03:01:00,VALID,916.839,VALID,0,VALID,100,VALID,-0.0169808,VALID,19.4779,VALID,119,VALID,0.787427,
2007-05-22, 03:02:00,VALID,916.85,VALID,0,VALID,100,VALID,-0.0509425,VALID,19.4752,VALID,113,VALID,0.852865,
2007-05-22, 03:03:00,VALID,916.884,VALID,0,VALID,100,VALID,-0.0509425,VALID,19.4645,VALID,103,VALID,0.695313,
2007-05-22, 03:04:00,VALID,916.887,VALID,0,VALID,100,VALID,-0.0169808,VALID,19.4717,VALID,77,VALID,0.565727,
2007-05-22, 03:05:00,VALID,916.904,VALID,0,VALID,100,VALID,0,VALID,19.4747,VALID,92,VALID,0.618963,
2007-05-22, 03:06:00,VALID,916.893,VALID,0,VALID,100,VALID,-0.0169808,VALID,19.4852,VALID,94,VALID,0.62035,
2007-05-22, 03:07:00,VALID,916.891,VALID,0,VALID,100,VALID,-0.0169808,VALID,19.4749,VALID,100,VALID,0.491629,
2007-05-22, 03:08:00,VALID,916.881,VALID,0,VALID,100,VALID,-0.0339617,VALID,19.4515,VALID,121,VALID,0.525586,
2007-05-22, 03:09:00,VALID,916.87,VALID,0,VALID,100,VALID,-0.0509425,VALID,19.462,VALID,78,VALID,0.816211,
2007-05-22, 03:10:00,VALID,916.858,VALID,0,VALID,100,VALID,-0.0169808,VALID,19.4485,VALID,75,VALID,0.706032,
2007-05-22, 03:11:00,VALID,916.87,VALID,0,VALID,100,VALID,0,VALID,19.4285,VALID,71,VALID,1.06468,
2007-05-22, 03:12:00,VALID,916.883,VALID,0,VALID,100,VALID,-0.0169808,VALID,19.4191,VALID,83,VALID,0.756324,
2007-05-22, 03:13:00,VALID,916.905,VALID,0,VALID,100,VALID,0,VALID,19.3996,VALID,72,VALID,0.423874,
2007-05-22, 03:14:00,VALID,916.928,VALID,0,VALID,100,VALID,-0.0339617,VALID,19.3866,VALID,72,VALID,0.261242,
2007-05-22, 03:15:00,VALID,916.956,VALID,0,VALID,100,VALID,0,VALID,19.3739,VALID,72,VALID,0.379586,
2007-05-22, 03:16:00,VALID,916.955,VALID,0,VALID,100,VALID,-0.0169808,VALID,19.3612,VALID,113,VALID,0.784137,
2007-05-22, 03:17:00,VALID,916.954,VALID,0,VALID,100,VALID,0,VALID,19.338,VALID,117,VALID,0.466319,
2007-05-22, 03:18:00,VALID,916.939,VALID,0,VALID,100,VALID,0,VALID,19.3317,VALID,119,VALID,0.446948,
2007-05-22, 03:19:00,VALID,916.929,VALID,0,VALID,100,VALID,0,VALID,19.3285,VALID,128,VALID,0.756696,
2007-05-22, 03:20:00,VALID,916.917,VALID,0,VALID,100,VALID,0,VALID,19.3192,VALID,125,VALID,0.650856,
2007-05-22, 03:21:00,VALID,916.918,VALID,0,VALID,100,VALID,-0.0339617,VALID,19.309,VALID,125,VALID,0.555432,
2007-05-22, 03:22:00,VALID,916.915,VALID,0,VALID,100,VALID,0,VALID,19.289,VALID,125,VALID,0.662791,
2007-05-22, 03:23:00,VALID,916.924,VALID,0,VALID,100,VALID,-0.0509425,VALID,19.299,VALID,135,VALID,0.836617,
2007-05-22, 03:24:00,VALID,916.937,VALID,0,VALID,100,VALID,-0.0169808,VALID,19.306,VALID,140,VALID,0.523438,
2007-05-22, 03:25:00,VALID,916.942,VALID,0,VALID,100,VALID,-0.0339617,VALID,19.3028,VALID,137,VALID,0.454613,
2007-05-22, 03:26:00,VALID,916.95,VALID,0,VALID,100,VALID,-0.0339617,VALID,19.2858,VALID,127,VALID,0.684201,
2007-05-22, 03:27:00,VALID,916.939,VALID,0,VALID,100,VALID,0,VALID,19.2965,VALID,123,VALID,0.903942,
2007-05-22, 03:28:00,VALID,916.941,VALID,0,VALID,100,VALID,-0.0339617,VALID,19.2728,VALID,110,VALID,0.748365,
2007-05-22, 03:29:00,VALID,916.953,VALID,0,VALID,100,VALID,-0.0169808,VALID,19.2601,VALID,110,VALID,0.847384,
2007-05-22, 03:30:00,VALID,916.941,VALID,0,VALID,100,VALID,-0.0509425,VALID,19.2636,VALID,115,VALID,1.127,
2007-05-22, 03:31:00,VALID,916.942,VALID,0,VALID,100,VALID,-0.0169808,VALID,19.2638,VALID,120,VALID,0.962993,
2007-05-22, 03:32:00,VALID,916.939,VALID,0,VALID,100,VALID,-0.0679233,VALID,19.2436,VALID,124,VALID,1.13281,
2007-05-22, 03:33:00,VALID,916.931,VALID,0,VALID,100,VALID,-0.0339617,VALID,19.2506,VALID,132,VALID,1.19368,
2007-05-22, 03:34:00,VALID,916.908,VALID,0,VALID,100,VALID,0,VALID,19.2509,VALID,138,VALID,1.07496,
2007-05-22, 03:35:00,VALID,916.893,VALID,0,VALID,100,VALID,-0.0339617,VALID,19.2406,VALID,132,VALID,1.03404,
2007-05-22, 03:36:00,VALID,916.881,VALID,0,VALID,100,VALID,0,VALID,19.2341,VALID,126,VALID,0.916016,
2007-05-22, 03:37:00,VALID,916.861,VALID,0,VALID,100,VALID,0,VALID,19.2339,VALID,140,VALID,0.838368,
2007-05-22, 03:38:00,VALID,916.877,VALID,0,VALID,100,VALID,-0.0169808,VALID,19.2379,VALID,149,VALID,0.521354,